Tracking 19562 objects as of 24-Mar-2019
HD Live streaming from Space Station
objects crossing your sky now

GLOBALSTAR M034

Track GLOBALSTAR M034 now!
10-day predictions
GLOBALSTAR M034 is classified as:


NORAD ID: 25962
Int'l Code: 1999-062B
Perigee: 1,769.7 km
Apogee: 1,793.5 km
Inclination: 52.0 °
Period: 122.1 minutes
Semi major axis: 8152 km
RCS: 2.591 m2 (large)
Launch date: November 22, 1999
Source: Globalstar (GLOB)
Launch site: TYURATAM MISSILE AND SPACE COMPLEX (TTMTR)
aabbcc
Your satellite tracking list
Your tracking list is empty




NASA's NSSDC Master Catalog

Two Line Element Set (TLE):
1 25962U 99062B   19081.43494262 -.00000059 +00000-0 +34974-3 0  9998
2 25962 051.9860 174.4148 0014621 057.8560 021.0968 11.79388977869503
Source of the keplerian elements: AFSPC